QPF
0.00 0.00 0.00 0.00 0.00 0.00 0.00 0.00 0.00 0.00 0.00 0.00 0.00 0.00 0.00 0.00 0.00 0.00 0.00 0.00 0.00 0.00 0.00 0.00 0.00 0.00 0.00 0.00 0.00 0.00 0.00 0.00 0.00 0.00 0.00 0.00 0.00 0.00 0.01 0.00 0.00 0.00 0.00 0.00 0.00 0.00 0.00
0.00 0.00 0.00 0.00 0.00 0.00 0.00 0.00 0.00 0.00 0.00 0.00 0.00 0.00 0.00 0.00 0.00 0.00 0.00 0.00 0.00 0.00 0.00 0.00 0.00 0.00 0.00 0.00 0.00 0.00 0.00 0.00 0.00 0.00 0.00 0.00 0.00 0.00 0.00 0.00 0.00 0.00 0.00 0.00 0.00 0.00 0.00
0.00 0.00 0.00 0.00 0.00 0.00 0.00 0.00 0.00 0.00 0.00 0.00 0.00 0.00 0.00 0.00 0.00 0.00 0.00 0.00 0.00 0.00 0.00 0.00 0.00 0.00 0.00 0.00 0.00 0.00 0.00 0.00 0.00 0.00 0.00 0.00 0.00 0.00 0.01 0.00 0.00 0.00 0.00 0.00 0.00 0.00 0.00
0.00 0.00 0.00 0.00 0.00 0.00 0.00 0.00 0.00 0.00 0.00 0.00 0.00 0.00 0.00 0.00 0.00 0.00 0.00 0.00 0.00 0.00 0.00 0.00 0.00 0.00 0.00 0.00 0.00 0.00 0.00 0.00 0.00 0.00 0.00 0.00 0.00 0.00 0.00 0.00 0.00 0.00 0.00 0.00 0.00 0.00 0.00
0.00 0.00 0.00 0.00 0.00 0.00 0.00 0.00 0.00 0.00 0.00 0.00 0.00 0.00 0.00 0.00 0.00 0.00 0.00 0.00 0.00 0.00 0.00 0.00 0.00 0.00 0.00 0.00 0.00 0.00 0.00 0.00 0.00 0.00 0.00 0.00 0.00 0.00 0.00 0.00 0.01 0.01 0.01 0.01 0.00 0.00 0.00
0.00 0.00 0.00 0.00 0.00 0.00 0.00 0.00 0.00 0.00 0.00 0.00 0.00 0.00 0.00 0.00 0.00 0.00 0.00 0.00 0.00 0.00 0.00 0.00 0.00 0.00 0.00 0.00 0.00 0.00 0.00 0.00 0.00 0.00 0.00 0.00 0.00 0.00 0.01 0.01 0.01 0.01 0.00 0.00 0.01 0.01 0.00
0.00 0.00 0.00 0.00 0.00 0.00 0.00 0.00 0.00 0.00 0.00 0.00 0.00 0.00 0.00 0.00 0.00 0.00 0.00 0.00 0.00 0.00 0.00 0.00 0.00 0.00 0.00 0.00 0.00 0.00 0.00 0.00 0.00 0.00 0.00 0.00 0.00 0.00 0.00 0.00 0.00 0.00 0.00 0.01 0.03 0.01 0.01
0.00 0.00 0.00 0.00 0.00 0.00 0.00 0.00 0.00 0.00 0.00 0.00 0.00 0.00 0.00 0.00 0.00 0.00 0.00 0.00 0.00 0.00 0.00 0.00 0.00 0.00 0.00 0.00 0.00 0.00 0.00 0.00 0.00 0.00 0.00 0.00 0.00 0.00 0.00 0.00 0.00 0.00 0.00 0.01 0.00 0.00 0.03
0.00 0.00 0.00 0.00 0.00 0.00 0.00 0.00 0.00 0.00 0.00 0.00 0.00 0.00 0.00 0.00 0.00 0.00 0.00 0.00 0.00 0.00 0.00 0.00 0.00 0.00 0.00 0.00 0.00 0.00 0.00 0.00 0.00 0.00 0.00 0.00 0.00 0.00 0.00 0.00 0.00 0.00 0.00 0.00 0.00 0.00 0.01
0.00 0.00 0.00 0.00 0.00 0.00 0.00 0.00 0.00 0.00 0.00 0.00 0.00 0.00 0.00 0.00 0.00 0.00 0.00 0.00 0.00 0.00 0.00 0.00 0.00 0.00 0.00 0.00 0.00 0.00 0.00 0.00 0.00 0.00 0.00 0.00 0.00 0.00 0.00 0.00 0.00 0.00 0.00 0.00 0.00 0.00 0.01
0.00 0.00 0.00 0.00 0.00 0.00 0.00 0.00 0.00 0.00 0.00 0.00 0.00 0.00 0.00 0.00 0.00 0.00 0.00 0.00 0.00 0.00 0.00 0.00 0.00 0.00 0.00 0.00 0.00 0.00 0.00 0.00 0.00 0.00 0.00 0.00 0.00 0.00 0.00 0.00 0.00 0.00 0.00 0.00 0.00 0.00 0.01
0.00 0.00 0.00 0.00 0.00 0.00 0.00 0.00 0.00 0.00 0.00 0.00 0.00 0.00 0.00 0.00 0.00 0.00 0.00 0.00 0.00 0.00 0.00 0.00 0.00 0.00 0.00 0.00 0.00 0.00 0.00 0.00 0.00 0.00 0.00 0.00 0.00 0.00 0.00 0.00 0.00 0.00 0.00 0.00 0.00 0.00 0.02
0.00 0.00 0.00 0.00 0.00 0.00 0.00 0.00 0.00 0.00 0.00 0.00 0.00 0.00 0.00 0.00 0.00 0.00 0.00 0.00 0.00 0.00 0.00 0.00 0.00 0.00 0.00 0.00 0.00 0.00 0.00 0.00 0.00 0.00 0.00 0.00 0.00 0.00 0.00 0.00 0.00 0.00 0.00 0.00 0.00 0.01 0.01
0.00 0.00 0.00 0.00 0.00 0.00 0.00 0.00 0.00 0.00 0.00 0.00 0.00 0.00 0.00 0.00 0.00 0.00 0.00 0.00 0.00 0.00 0.00 0.00 0.00 0.00 0.00 0.00 0.00 0.00 0.00 0.00 0.00 0.00 0.00 0.00 0.00 0.00 0.00 0.00 0.00 0.00 0.00 0.00 0.00 0.00 0.00
0.00 0.00 0.00 0.00 0.00 0.00 0.00 0.00 0.00 0.00 0.00 0.00 0.00 0.00 0.00 0.00 0.00 0.00 0.00 0.00 0.00 0.00 0.00 0.00 0.00 0.00 0.00 0.00 0.00 0.00 0.00 0.00 0.00 0.00 0.00 0.00 0.00 0.00 0.00 0.00 0.00 0.00 0.00 0.00 0.00 0.00 0.00
0.00 0.00 0.00 0.00 0.00 0.00 0.00 0.00 0.00 0.00 0.00 0.00 0.00 0.00 0.00 0.00 0.00 0.00 0.00 0.00 0.00 0.00 0.00 0.00 0.00 0.00 0.00 0.00 0.00 0.00 0.00 0.00 0.00 0.00 0.00 0.00 0.00 0.00 0.00 0.00 0.00 0.00 0.00 0.00 0.00 0.00 0.00
0.00 0.00 0.00 0.00 0.00 0.00 0.00 0.00 0.00 0.00 0.00 0.00 0.00 0.00 0.00 0.00 0.00 0.00 0.00 0.00 0.00 0.00 0.00 0.00 0.00 0.00 0.00 0.00 0.00 0.00 0.00 0.00 0.00 0.00 0.00 0.00 0.00 0.00 0.00 0.00 0.00 0.00 0.00 0.00 0.00 0.00 0.00
0.00 0.00 0.00 0.00 0.00 0.00 0.00 0.00 0.00 0.00 0.00 0.00 0.00 0.00 0.00 0.00 0.00 0.00 0.00 0.00 0.00 0.00 0.00 0.00 0.00 0.00 0.00 0.00 0.00 0.00 0.00 0.00 0.00 0.00 0.00 0.00 0.00 0.00 0.00 0.00 0.00 0.00 0.00 0.00 0.00 0.00 0.00
0.00 0.00 0.00 0.00 0.00 0.00 0.00 0.00 0.00 0.00 0.00 0.00 0.00 0.00 0.00 0.00 0.00 0.00 0.00 0.00 0.00 0.00 0.00 0.00 0.00 0.00 0.00 0.00 0.00 0.00 0.00 0.00 0.00 0.00 0.00 0.00 0.00 0.00 0.00 0.00 0.00 0.00 0.00 0.00 0.00 0.00 0.00
0.00 0.00 0.00 0.00 0.00 0.00 0.00 0.00 0.00 0.00 0.00 0.00 0.00 0.00 0.00 0.00 0.00 0.00 0.00 0.00 0.00 0.00 0.00 0.00 0.00 0.00 0.00 0.00 0.00 0.00 0.00 0.00 0.00 0.00 0.00 0.00 0.00 0.00 0.00 0.00 0.00 0.00 0.00 0.00 0.00 0.00 0.00
0.00 0.00 0.00 0.00 0.00 0.00 0.00 0.00 0.00 0.00 0.00 0.00 0.00 0.00 0.00 0.00 0.00 0.00 0.00 0.00 0.00 0.00 0.00 0.00 0.00 0.00 0.00 0.00 0.00 0.00 0.00 0.00 0.00 0.00 0.00 0.00 0.00 0.00 0.00 0.00 0.00 0.00 0.00 0.00 0.00 0.00 0.00
0.00 0.00 0.00 0.00 0.00 0.00 0.00 0.00 0.00 0.00 0.00 0.01 0.00 0.00 0.00 0.00 0.00 0.00 0.00 0.00 0.00 0.00 0.00 0.00 0.00 0.00 0.00 0.00 0.00 0.00 0.00 0.00 0.00 0.00 0.00 0.00 0.00 0.00 0.00 0.00 0.00 0.00 0.00 0.00 0.00 0.00 0.00
0.00 0.01 0.01 0.00 0.00 0.00 0.00 0.00 0.00 0.00 0.00 0.00 0.00 0.00 0.00 0.00 0.00 0.00 0.00 0.00 0.00 0.00 0.00 0.00 0.00 0.00 0.00 0.00 0.00 0.00 0.00 0.00 0.00 0.00 0.00 0.00 0.00 0.00 0.00 0.00 0.00 0.00 0.00 0.00 0.00 0.00 0.00
0.00 0.00 0.01 0.01 0.00 0.00 0.00 0.00 0.00 0.00 0.00 0.00 0.00 0.00 0.00 0.00 0.00 0.00 0.00 0.00 0.00 0.00 0.00 0.00 0.00 0.00 0.00 0.00 0.00 0.00 0.00 0.00 0.00 0.00 0.00 0.00 0.00 0.00 0.00 0.00 0.00 0.00 0.00 0.00 0.00 0.00 0.00
0.00 0.00 0.00 0.00 0.00 0.00 0.00 0.00 0.00 0.00 0.00 0.00 0.00 0.00 0.01 0.00 0.00 0.00 0.00 0.00 0.00 0.00 0.00 0.00 0.00 0.00 0.00 0.00 0.00 0.00 0.00 0.00 0.00 0.00 0.00 0.00 0.00 0.00 0.00 0.00 0.00 0.00 0.00 0.00 0.00 0.00 0.00
0.00 0.00 0.00 0.00 0.00 0.00 0.00 0.00 0.00 0.01 0.01 0.01 0.01 0.00 0.01 0.01 0.00 0.00 0.00 0.00 0.00 0.00 0.00 0.00 0.00 0.00 0.00 0.00 0.00 0.00 0.00 0.00 0.00 0.00 0.00 0.00 0.00 0.00 0.00 0.00 0.00 0.00 0.00 0.00 0.00 0.00 0.00
0.00 0.00 0.00 0.01 0.01 0.00 0.00 0.00 0.00 0.01 0.01 0.01 0.01 0.00 0.01 0.01 0.00 0.00 0.00 0.00 0.00 0.00 0.00 0.00 0.00 0.00 0.00 0.00 0.00 0.00 0.00 0.00 0.00 0.00 0.00 0.00 0.00 0.00 0.00 0.00 0.00 0.00 0.00 0.00 0.00 0.00 0.00
0.00 0.00 0.00 0.00 0.01 0.00 0.00 0.00 0.00 0.00 0.01 0.01 0.01 0.01 0.01 0.01 0.00 0.00 0.00 0.00 0.00 0.00 0.00 0.00 0.00 0.00 0.00 0.00 0.00 0.00 0.00 0.00 0.00 0.00 0.00 0.00 0.00 0.00 0.00 0.00 0.00 0.00 0.00 0.00 0.00 0.00 0.00
0.01 0.00 0.01 0.01 0.01 0.00 0.00 0.00 0.00 0.00 0.00 0.00 0.00 0.01 0.02 0.04 0.00 0.00 0.00 0.00 0.00 0.00 0.00 0.00 0.00 0.00 0.00 0.00 0.00 0.00 0.00 0.00 0.00 0.00 0.00 0.00 0.00 0.00 0.00 0.00 0.00 0.00 0.00 0.00 0.00 0.00 0.00
MSLP
1024.57 1024.49 1024.24 1024.09 1023.89 1023.67 1023.39 1023.14 1022.86 1022.56 1022.20 1021.82 1021.49 1021.33 1021.20 1021.03 1020.84 1020.71 1020.47 1020.28 1020.07 1019.77 1019.51 1019.26 1018.98 1018.65 1018.26 1017.53 1017.41 1017.14 1017.41 1017.36 1016.98 1016.86 1016.55 1016.52 1016.35 1016.42 1016.38 1016.36 1015.95 1015.39 1014.86 1014.31 1013.75 1013.47 1013.22
1024.81 1024.65 1024.48 1024.24 1024.04 1023.83 1023.58 1023.28 1023.03 1022.69 1022.28 1021.86 1021.54 1021.33 1021.15 1020.95 1020.77 1020.51 1020.35 1020.17 1019.97 1019.72 1019.40 1019.18 1018.98 1018.71 1018.31 1017.42 1017.08 1017.01 1017.23 1017.31 1017.09 1016.90 1016.62 1016.68 1016.87 1016.84 1016.65 1016.41 1016.20 1015.58 1015.26 1014.62 1013.94 1013.50 1013.30
1025.09 1024.90 1024.68 1024.50 1024.22 1023.95 1023.70 1023.46 1023.16 1022.78 1022.41 1022.01 1021.60 1021.29 1021.06 1020.90 1020.62 1020.36 1020.15 1019.95 1019.76 1019.55 1019.27 1019.03 1018.91 1018.68 1017.95 1017.24 1016.81 1016.91 1016.93 1017.04 1017.13 1017.09 1016.92 1016.67 1016.91 1017.06 1016.97 1016.38 1015.87 1015.63 1015.15 1014.30 1013.29 1012.89 1012.78
1025.31 1025.12 1024.90 1024.75 1024.41 1024.11 1023.86 1023.59 1023.25 1022.88 1022.48 1022.11 1021.67 1021.30 1020.97 1020.71 1020.45 1020.16 1019.91 1019.78 1019.62 1019.45 1019.20 1018.91 1018.80 1018.58 1017.47 1016.71 1016.72 1016.73 1016.44 1016.47 1016.54 1016.83 1016.92 1016.82 1016.91 1016.86 1016.71 1016.27 1015.88 1015.44 1014.96 1014.15 1012.95 1012.65 1012.33
1025.49 1025.28 1025.10 1024.87 1024.58 1024.35 1024.02 1023.71 1023.32 1022.97 1022.60 1022.20 1021.78 1021.30 1020.97 1020.61 1020.36 1019.98 1019.63 1019.37 1019.24 1019.18 1019.12 1018.88 1018.73 1018.24 1017.05 1016.95 1016.69 1016.37 1016.45 1016.39 1016.41 1016.39 1016.37 1016.43 1016.65 1016.51 1016.28 1016.30 1015.84 1015.97 1015.24 1014.11 1012.96 1012.27 1012.06
1025.54 1025.36 1025.16 1024.96 1024.79 1024.48 1024.13 1023.78 1023.40 1023.04 1022.65 1022.21 1021.76 1021.33 1020.89 1020.49 1020.15 1019.80 1019.38 1019.10 1018.84 1019.01 1018.75 1018.25 1018.10 1018.21 1017.09 1016.55 1016.28 1016.29 1016.29 1016.46 1016.41 1016.21 1015.73 1016.21 1016.07 1015.86 1015.73 1015.60 1015.37 1015.04 1014.68 1013.92 1013.35 1012.52 1011.84
1025.69 1025.45 1025.25 1025.00 1024.79 1024.58 1024.26 1023.93 1023.55 1023.12 1022.73 1022.25 1021.66 1021.26 1020.86 1020.33 1019.87 1019.67 1018.95 1018.83 1019.19 1019.15 1018.25 1017.46 1017.23 1016.83 1016.35 1016.36 1016.21 1016.27 1016.06 1016.18 1016.07 1016.03 1015.62 1015.28 1015.56 1014.95 1014.65 1014.62 1014.54 1014.42 1013.96 1013.35 1012.56 1012.41 1011.98
1025.76 1025.57 1025.36 1025.12 1024.80 1024.65 1024.39 1024.04 1023.72 1023.29 1022.73 1022.26 1021.67 1021.15 1020.66 1020.36 1019.73 1019.25 1019.34 1018.99 1019.85 1019.91 1018.47 1016.96 1017.04 1016.93 1016.56 1016.77 1016.34 1015.81 1016.24 1016.21 1015.87 1015.66 1014.97 1014.83 1014.58 1013.83 1013.82 1013.72 1013.59 1013.31 1012.84 1012.23 1011.60 1011.67 1011.93
1025.92 1025.67 1025.43 1025.22 1024.97 1024.71 1024.48 1024.11 1023.76 1023.30 1022.91 1022.30 1021.72 1021.11 1020.64 1020.14 1019.70 1019.34 1019.21 1019.83 1019.88 1019.68 1018.89 1017.10 1016.71 1016.63 1016.59 1016.83 1016.24 1015.83 1016.20 1015.97 1015.69 1015.30 1014.88 1014.73 1013.71 1013.40 1013.39 1013.10 1012.87 1012.54 1012.13 1011.94 1011.93 1011.47 1011.64
1025.90 1025.71 1025.51 1025.33 1025.05 1024.77 1024.52 1024.21 1023.72 1023.37 1022.95 1022.42 1021.84 1021.21 1020.63 1020.08 1020.02 1019.34 1019.47 1019.78 1019.66 1019.71 1019.03 1017.25 1016.66 1016.58 1016.61 1016.61 1016.24 1015.70 1015.93 1016.39 1015.59 1015.05 1014.69 1014.08 1013.12 1013.13 1013.08 1012.83 1012.68 1012.31 1011.80 1011.77 1011.74 1011.78 1011.94
1025.90 1025.70 1025.55 1025.31 1025.09 1024.84 1024.54 1024.28 1023.78 1023.32 1022.91 1022.50 1021.91 1021.32 1020.75 1020.44 1020.16 1019.28 1019.72 1019.47 1019.59 1019.64 1018.91 1017.24 1016.47 1016.26 1016.09 1016.60 1016.05 1015.94 1016.15 1016.14 1015.80 1015.22 1015.36 1014.18 1013.21 1013.25 1013.01 1012.47 1012.57 1012.12 1011.49 1011.55 1011.55 1011.76 1011.65
1025.87 1025.63 1025.43 1025.21 1025.03 1024.90 1024.51 1024.23 1023.88 1023.37 1022.88 1022.49 1022.01 1021.38 1020.79 1020.06 1019.97 1020.17 1019.95 1019.63 1019.44 1019.62 1017.91 1016.80 1016.23 1016.14 1015.94 1015.77 1015.61 1015.55 1016.03 1016.22 1015.52 1015.35 1014.68 1014.10 1013.23 1013.41 1012.93 1012.47 1012.22 1012.05 1011.76 1010.71 1010.79 1011.77 1011.95
1025.68 1025.50 1025.34 1025.05 1024.90 1024.76 1024.47 1024.15 1023.88 1023.40 1022.88 1022.40 1021.92 1021.41 1020.90 1020.53 1020.37 1020.21 1020.03 1019.84 1019.54 1018.67 1017.45 1016.89 1016.53 1016.15 1016.06 1015.77 1015.42 1015.61 1015.69 1015.85 1016.04 1015.98 1014.98 1013.99 1013.03 1013.06 1013.30 1012.82 1011.80 1012.32 1012.34 1012.37 1012.27 1012.46 1012.02
1025.49 1025.21 1025.04 1024.88 1024.76 1024.52 1024.27 1024.02 1023.76 1023.35 1022.95 1022.29 1021.68 1021.14 1020.40 1020.32 1020.17 1020.22 1020.12 1019.92 1019.08 1017.69 1016.81 1016.66 1016.51 1016.33 1016.13 1015.95 1015.60 1015.53 1015.66 1015.70 1016.22 1016.40 1016.00 1015.11 1013.76 1013.27 1013.28 1013.24 1013.17 1012.93 1013.15 1013.95 1014.13 1013.73 1012.64
1025.72 1025.39 1025.10 1024.74 1024.42 1024.21 1024.07 1023.88 1023.55 1023.23 1022.81 1022.29 1021.25 1020.45 1020.22 1020.18 1020.22 1020.25 1020.34 1019.63 1017.86 1016.99 1016.78 1016.65 1016.26 1016.31 1015.97 1016.15 1016.18 1015.75 1015.37 1015.71 1016.05 1016.43 1016.85 1015.89 1014.40 1013.49 1013.31 1013.30 1013.67 1013.03 1013.24 1013.73 1014.24 1013.50 1013.23
1026.03 1025.63 1025.29 1024.96 1024.63 1023.98 1023.76 1023.62 1023.42 1023.10 1022.69 1022.32 1021.90 1020.87 1020.12 1020.34 1020.26 1020.25 1019.97 1018.79 1017.32 1016.89 1016.90 1016.78 1016.60 1016.65 1016.29 1016.10 1016.29 1015.82 1015.48 1015.82 1016.26 1016.72 1016.95 1016.70 1015.87 1013.81 1013.45 1013.56 1013.54 1013.76 1013.74 1013.79 1014.09 1014.34 1013.57
1026.30 1025.90 1025.48 1025.26 1024.84 1024.43 1023.90 1023.44 1023.28 1022.92 1022.59 1022.17 1022.01 1021.04 1020.65 1020.49 1020.44 1020.23 1019.47 1017.98 1016.93 1016.76 1016.81 1016.86 1016.58 1016.54 1016.49 1016.40 1016.35 1016.14 1015.82 1016.01 1016.22 1016.60 1017.02 1017.07 1016.72 1014.61 1013.65 1013.54 1013.46 1013.74 1013.66 1013.79 1014.04 1014.30 1014.45
1026.45 1026.16 1025.88 1025.46 1025.14 1024.64 1024.31 1023.67 1023.28 1022.99 1022.61 1021.80 1021.88 1021.20 1020.49 1020.48 1020.72 1019.49 1018.50 1017.30 1016.89 1016.85 1017.10 1016.99 1016.90 1016.39 1016.33 1016.37 1016.48 1016.26 1016.00 1016.00 1016.37 1016.83 1017.03 1017.28 1017.09 1015.96 1014.08 1013.60 1013.65 1013.76 1013.85 1014.07 1014.56 1014.56 1014.44
1026.61 1026.34 1025.91 1025.68 1025.43 1025.19 1024.48 1023.88 1023.51 1023.01 1022.86 1022.66 1022.05 1020.68 1020.47 1020.27 1019.93 1018.75 1017.60 1017.07 1016.78 1016.71 1016.73 1016.88 1016.71 1016.57 1016.38 1016.36 1016.38 1016.11 1016.14 1016.37 1016.69 1017.19 1017.46 1017.59 1017.41 1016.59 1014.66 1014.59 1014.10 1014.00 1013.83 1014.09 1014.63 1014.72 1014.36
1026.82 1026.41 1026.16 1025.93 1025.31 1025.35 1024.61 1024.18 1023.73 1023.32 1022.88 1022.87 1022.26 1020.82 1020.44 1020.21 1019.02 1018.27 1017.36 1016.49 1016.49 1016.25 1016.33 1016.36 1016.28 1016.52 1016.66 1016.45 1016.11 1015.96 1016.14 1016.43 1016.99 1017.38 1017.74 1018.01 1017.81 1017.31 1016.58 1015.44 1015.14 1014.42 1013.95 1014.28 1014.59 1014.96 1013.95
1026.79 1026.52 1026.23 1025.78 1025.48 1025.30 1024.78 1024.35 1024.06 1023.66 1023.23 1023.15 1021.79 1020.46 1018.90 1019.06 1018.58 1017.93 1017.16 1016.09 1015.72 1016.05 1016.26 1016.14 1016.09 1016.08 1016.05 1016.10 1015.76 1015.85 1016.03 1016.47 1017.03 1017.66 1018.10 1018.38 1018.16 1017.40 1016.60 1015.88 1015.12 1014.55 1013.87 1013.72 1014.07 1013.91 1013.97
1026.81 1026.47 1025.98 1025.76 1025.48 1025.17 1024.69 1024.42 1024.27 1024.02 1023.29 1022.80 1021.71 1020.37 1019.29 1018.69 1018.14 1017.41 1017.14 1015.78 1015.33 1015.25 1015.39 1015.65 1015.66 1015.03 1015.54 1015.39 1014.93 1015.09 1015.52 1016.14 1016.70 1017.78 1018.28 1018.35 1018.17 1017.65 1016.51 1015.61 1014.94 1014.22 1013.22 1012.98 1012.97 1013.16 1013.04
1026.62 1026.52 1026.11 1025.77 1025.54 1025.29 1025.02 1024.72 1024.40 1024.12 1023.94 1022.74 1021.91 1021.08 1020.58 1018.75 1018.08 1017.12 1016.18 1015.43 1014.89 1014.85 1014.29 1014.13 1014.32 1014.83 1014.78 1014.26 1014.38 1014.75 1015.03 1015.47 1016.14 1017.12 1017.86 1018.44 1018.42 1018.19 1016.99 1015.73 1015.02 1013.87 1013.00 1012.32 1012.55 1012.90 1012.86
1026.45 1026.22 1025.81 1025.69 1025.58 1025.36 1025.21 1024.88 1024.53 1024.23 1024.19 1024.44 1023.97 1023.64 1021.34 1018.62 1018.14 1016.69 1016.01 1015.18 1014.65 1014.53 1014.22 1013.89 1014.04 1014.29 1014.40 1014.20 1014.57 1014.94 1015.29 1015.76 1016.06 1016.49 1017.23 1017.97 1018.49 1018.62 1017.82 1016.59 1015.28 1013.67 1013.06 1012.78 1012.85 1013.29 1013.18
1026.18 1026.05 1025.80 1025.44 1025.31 1025.21 1025.06 1024.91 1024.58 1024.25 1024.01 1023.97 1023.83 1023.68 1022.19 1019.16 1017.94 1016.18 1015.92 1015.27 1014.77 1014.13 1013.91 1013.96 1014.12 1014.18 1014.22 1014.57 1015.16 1015.33 1015.59 1015.96 1016.03 1016.92 1017.18 1017.79 1018.47 1018.51 1018.26 1017.19 1015.18 1013.32 1013.20 1013.03 1013.05 1013.56 1013.61
1025.65 1025.56 1025.38 1025.11 1025.05 1024.89 1024.81 1024.56 1024.46 1024.20 1023.83 1023.43 1023.13 1023.28 1022.56 1020.68 1015.45 1016.81 1016.10 1014.91 1014.26 1013.93 1013.74 1013.66 1014.28 1014.38 1014.71 1014.86 1015.21 1015.22 1015.18 1015.13 1016.18 1017.16 1017.83 1018.03 1018.26 1018.62 1018.10 1017.54 1015.57 1013.48 1013.07 1013.02 1013.23 1013.57 1013.59
1025.17 1025.06 1025.01 1024.80 1024.60 1024.44 1024.26 1024.12 1023.89 1023.76 1023.52 1023.41 1022.82 1022.60 1022.29 1019.86 1014.92 1017.23 1015.00 1014.24 1013.92 1013.64 1012.63 1013.34 1014.32 1014.89 1014.91 1014.84 1014.95 1014.75 1014.31 1014.08 1015.00 1015.92 1017.26 1017.81 1018.12 1017.95 1017.81 1017.08 1015.13 1013.05 1013.05 1013.20 1013.72 1014.39 1013.97
1024.69 1024.63 1024.62 1024.55 1024.33 1023.91 1023.66 1023.49 1023.20 1022.91 1022.70 1022.63 1022.06 1022.00 1021.58 1019.63 1014.40 1015.73 1014.43 1013.75 1013.42 1012.97 1012.57 1012.70 1013.87 1014.12 1014.68 1014.53 1014.26 1013.67 1013.35 1013.20 1013.59 1013.69 1014.66 1015.30 1016.34 1016.67 1016.76 1016.35 1014.66 1012.76 1013.23 1013.43 1012.99 1013.49 1013.98
1024.29 1024.06 1023.97 1023.81 1023.60 1023.35 1023.06 1022.73 1022.47 1022.14 1021.96 1021.55 1020.99 1021.08 1020.78 1019.25 1013.25 1012.87 1011.76 1011.48 1012.10 1011.90 1012.17 1011.68 1011.21 1011.57 1012.01 1012.74 1012.42 1012.26 1012.25 1012.31 1012.44 1013.09 1012.91 1013.68 1013.12 1013.91 1014.23 1013.63 1012.97 1012.67 1012.78 1012.94 1013.11 1013.28 1013.76
Thickness
5624 5626 5628 5630 5631 5632 5633 5635 5637 5638 5640 5641 5642 5643 5642 5642 5642 5641 5641 5640 5638 5637 5635 5633 5631 5628 5626 5624 5612 5609 5597 5589 5583 5576 5569 5562 5557 5552 5545 5543 5543 5540 5546 5552 5556 5558 5559
5621 5623 5625 5626 5628 5630 5631 5633 5634 5636 5637 5639 5640 5640 5641 5640 5640 5640 5639 5638 5637 5635 5634 5632 5628 5626 5623 5615 5617 5608 5598 5589 5582 5575 5568 5562 5553 5551 5545 5543 5538 5542 5541 5544 5550 5552 5553
5618 5620 5621 5623 5625 5627 5628 5630 5632 5633 5634 5636 5637 5638 5639 5639 5639 5639 5639 5637 5636 5634 5633 5631 5627 5624 5620 5617 5617 5608 5600 5590 5581 5573 5565 5564 5556 5548 5543 5543 5548 5542 5537 5545 5552 5555 5552
5614 5616 5618 5620 5622 5624 5625 5627 5629 5630 5631 5633 5635 5636 5638 5638 5638 5638 5638 5637 5635 5634 5632 5630 5626 5622 5619 5625 5618 5610 5604 5595 5587 5578 5569 5564 5557 5549 5545 5546 5544 5541 5540 5534 5554 5555 5555
5610 5612 5614 5616 5618 5619 5622 5624 5626 5627 5628 5630 5632 5634 5636 5637 5637 5637 5638 5638 5636 5634 5630 5628 5625 5622 5622 5623 5616 5614 5605 5594 5587 5581 5575 5569 5559 5550 5548 5537 5535 5526 5524 5537 5545 5558 5554
5606 5608 5610 5612 5613 5616 5618 5620 5623 5624 5626 5629 5630 5632 5634 5636 5636 5636 5638 5638 5636 5632 5631 5629 5628 5617 5624 5620 5619 5613 5608 5598 5587 5581 5578 5567 5560 5553 5546 5540 5530 5536 5536 5539 5534 5548 5552
5601 5604 5607 5609 5611 5612 5614 5616 5619 5621 5623 5626 5629 5630 5632 5634 5636 5636 5639 5639 5634 5628 5631 5631 5629 5627 5627 5624 5621 5611 5609 5599 5592 5584 5574 5575 5558 5554 5557 5555 5552 5547 5547 5544 5552 5546 5548
5597 5600 5602 5605 5607 5608 5610 5613 5615 5618 5621 5623 5627 5630 5632 5632 5635 5636 5634 5635 5622 5619 5621 5636 5629 5624 5626 5619 5612 5615 5608 5596 5592 5579 5587 5576 5562 5575 5571 5567 5561 5557 5553 5552 5565 5559 5548
5591 5594 5598 5600 5602 5605 5606 5608 5611 5615 5617 5621 5624 5628 5630 5632 5633 5633 5632 5624 5621 5619 5618 5630 5631 5624 5621 5616 5612 5612 5606 5600 5591 5587 5586 5572 5583 5584 5576 5571 5568 5565 5562 5558 5553 5562 5551
5585 5589 5592 5594 5597 5600 5602 5604 5608 5610 5614 5618 5622 5625 5628 5631 5631 5632 5626 5622 5621 5618 5612 5628 5627 5624 5621 5616 5608 5617 5609 5598 5598 5592 5591 5587 5599 5587 5578 5574 5572 5558 5574 5568 5562 5552 5530
5579 5583 5585 5589 5591 5594 5597 5599 5603 5607 5610 5613 5618 5622 5625 5626 5626 5630 5624 5623 5619 5615 5600 5627 5627 5630 5625 5611 5613 5608 5608 5599 5591 5593 5588 5582 5592 5580 5577 5583 5578 5572 5578 5570 5567 5557 5553
5573 5577 5580 5583 5586 5587 5591 5594 5597 5601 5605 5608 5612 5617 5621 5624 5624 5620 5619 5619 5618 5605 5601 5624 5628 5623 5621 5620 5618 5615 5604 5599 5601 5593 5597 5592 5604 5588 5587 5585 5582 5582 5576 5587 5579 5565 5532
5566 5570 5575 5578 5580 5582 5585 5588 5590 5595 5600 5603 5607 5611 5615 5616 5618 5616 5616 5614 5606 5596 5623 5621 5618 5621 5615 5614 5616 5610 5603 5595 5586 5571 5583 5594 5603 5597 5587 5581 5594 5580 5568 5546 5542 5537 5546
5561 5565 5568 5571 5573 5577 5580 5582 5585 5589 5593 5599 5604 5608 5612 5611 5612 5612 5611 5609 5596 5616 5625 5619 5615 5612 5608 5610 5614 5608 5601 5595 5590 5584 5572 5569 5568 5596 5589 5583 5573 5571 5569 5533 5536 5533 5542
5553 5557 5561 5565 5568 5572 5573 5575 5579 5582 5586 5591 5600 5607 5607 5607 5606 5605 5603 5596 5604 5624 5619 5614 5617 5608 5613 5608 5600 5602 5605 5596 5591 5584 5568 5565 5582 5596 5592 5588 5578 5578 5567 5571 5554 5565 5537
5543 5548 5552 5556 5560 5566 5568 5570 5572 5575 5579 5583 5587 5596 5603 5598 5598 5598 5598 5599 5618 5617 5612 5610 5604 5604 5602 5605 5597 5600 5603 5598 5591 5583 5578 5574 5561 5597 5595 5586 5581 5573 5576 5556 5554 5542 5551
5534 5538 5542 5545 5549 5554 5559 5562 5564 5568 5570 5575 5577 5587 5589 5588 5589 5590 5587 5601 5615 5612 5609 5604 5607 5600 5600 5597 5595 5593 5596 5593 5590 5584 5577 5570 5568 5580 5592 5586 5581 5574 5574 5574 5570 5562 5539
5526 5528 5531 5535 5537 5542 5545 5551 5554 5556 5559 5566 5568 5575 5581 5579 5579 5588 5592 5608 5604 5602 5599 5597 5596 5600 5598 5596 5589 5591 5590 5594 5588 5581 5574 5567 5562 5553 5584 5585 5584 5578 5575 5573 5555 5558 5554
5516 5518 5521 5524 5526 5527 5534 5539 5541 5545 5546 5548 5556 5571 5568 5570 5570 5581 5596 5595 5596 5595 5595 5590 5590 5593 5595 5589 5581 5588 5590 5584 5581 5574 5569 5567 5558 5538 5580 5575 5579 5576 5579 5576 5566 5562 5552
5502 5506 5508 5509 5516 5514 5521 5524 5528 5532 5534 5536 5543 5553 5558 5560 5571 5576 5585 5590 5587 5590 5592 5593 5591 5588 5582 5579 5584 5582 5581 5579 5574 5570 5561 5557 5559 5556 5549 5563 5561 5562 5570 5568 5565 5535 5562
5488 5490 5492 5496 5498 5501 5506 5510 5513 5515 5519 5522 5536 5545 5561 5557 5562 5567 5573 5583 5583 5579 5579 5583 5581 5580 5577 5572 5580 5574 5577 5574 5567 5561 5556 5550 5547 5553 5558 5559 5560 5560 5567 5568 5560 5560 5554
5472 5474 5479 5482 5485 5488 5493 5494 5494 5497 5505 5510 5522 5535 5543 5552 5558 5560 5559 5570 5574 5578 5574 5571 5570 5583 5573 5571 5579 5570 5574 5569 5569 5552 5548 5547 5535 5547 5551 5561 5561 5560 5570 5570 5570 5566 5565
5462 5463 5467 5469 5471 5474 5476 5479 5481 5483 5486 5498 5504 5510 5512 5538 5542 5549 5555 5564 5568 5569 5575 5581 5574 5568 5568 5578 5578 5574 5571 5568 5564 5553 5542 5537 5527 5530 5537 5553 5552 5558 5568 5574 5570 5567 5567
5452 5453 5456 5458 5459 5459 5460 5463 5465 5467 5468 5467 5469 5468 5492 5523 5525 5540 5546 5552 5556 5555 5559 5571 5566 5561 5567 5569 5565 5561 5558 5554 5554 5552 5547 5538 5530 5522 5514 5533 5530 5560 5561 5561 5560 5553 5554
5438 5438 5440 5443 5443 5444 5444 5445 5448 5450 5452 5454 5454 5451 5464 5497 5514 5534 5529 5535 5539 5549 5547 5550 5553 5553 5555 5555 5546 5543 5540 5541 5545 5535 5539 5534 5525 5513 5502 5515 5543 5560 5553 5552 5550 5543 5543
5425 5425 5426 5427 5427 5427 5426 5428 5429 5431 5433 5439 5442 5436 5438 5455 5518 5508 5509 5525 5526 5529 5535 5541 5536 5538 5537 5535 5533 5526 5529 5543 5520 5512 5518 5523 5518 5509 5513 5508 5526 5550 5547 5546 5543 5540 5539
5412 5412 5411 5412 5412 5412 5412 5412 5413 5416 5418 5419 5424 5422 5420 5437 5508 5477 5498 5510 5518 5519 5528 5526 5511 5512 5520 5519 5514 5515 5525 5544 5522 5520 5492 5497 5498 5497 5492 5493 5519 5547 5539 5536 5528 5526 5527
5395 5394 5393 5392 5392 5393 5394 5395 5397 5398 5403 5405 5412 5406 5404 5417 5487 5470 5489 5495 5502 5506 5509 5511 5499 5502 5496 5500 5505 5519 5525 5529 5532 5536 5515 5510 5498 5493 5498 5492 5498 5537 5530 5527 5529 5523 5520
5375 5374 5373 5373 5373 5374 5377 5379 5379 5379 5384 5388 5401 5394 5389 5395 5476 5473 5491 5499 5493 5500 5494 5496 5516 5509 5508 5498 5509 5521 5517 5519 5528 5520 5531 5517 5533 5515 5517 5519 5527 5527 5521 5518 5518 5517 5513